Home   Weather   Leawood   Past weeks

Flag for USA Past Weather in Leawood, Kansas, USA — Yesterday and Last 2 Weeks

Now
59 °F

Clear.


Feels Like: 58 °F
Forecast: 56 / 74 °F
Wind: 8 mph from South

Location: Johnson County Executive Airport

Current Time: Apr 25, 2017 at 5:50:16 am

Latest Report: Apr 25, 2017 at 4:53 am


Visibility: 10 mi

Pressure: 29.52 "Hg

Humidity: 64%

Dew Point: 47 °F

Location of LeawoodLocation

Past Weather in Leawood — Graph

°F

Leawood Temperature Yesterday

Maximum temperature yesterday: 73 °F (at 4:53 pm)
Minimum temperature yesterday: 42 °F (at 6:53 am)
Average temperature yesterday: 60 °F

High & Low Weather Summary for the Past Weeks

 TemperatureHumidityPressure
High78 °F (Apr 15, 4:53 pm)100% (Apr 14, 4:53 am)30.33 "Hg (Apr 14, 4:53 am)
Low36 °F (Apr 11, 6:53 am)25% (Apr 22, 4:53 pm)29.49 "Hg (Apr 25, 3:53 am)
Average61 °F68%30.03 "Hg
* Reported Apr 10 3:53 am — Apr 25 3:53 am, Leawood, Weather by CustomWeather, © 2017

Note: Actual official high and low records may vary slightly from our data, if they occured in-between our weather recording intervals... More about our weather records

Advertising

Leawood Weather History for the Previous 24 Hours

Scroll right to see more
 ConditionsComfort  
Time TempWeatherWind HumidityBarometerVisibility
3:53 am
Tue, Apr 25
59 °FClear.10 mph64%29.49 "Hg10 mi
2:53 am60 °FClear.9 mph60%29.54 "Hg10 mi
1:53 am61 °FClear.10 mph58%29.56 "Hg10 mi
12:53 am60 °FClear.8 mph60%29.57 "Hg10 mi
11:53 pm
Mon, Apr 24
59 °FClear.8 mph62%29.57 "Hg10 mi
10:53 pm60 °FClear.7 mph58%29.59 "Hg10 mi
9:53 pm60 °FClear.9 mph56%29.61 "Hg10 mi
8:53 pm61 °FClear.7 mph52%29.61 "Hg10 mi
7:53 pm66 °FSunny.7 mph42%29.60 "Hg10 mi
6:53 pm70 °FSunny.8 mph35%29.60 "Hg10 mi
5:53 pm72 °FSunny.15 mph30%29.61 "Hg10 mi
4:53 pm73 °FSunny.15 mph32%29.60 "Hg10 mi
3:53 pm71 °FSunny.21 mph32%29.63 "Hg10 mi
2:53 pm72 °FSunny.23 mph31%29.66 "Hg10 mi
1:53 pm70 °FSunny.18 mph34%29.72 "Hg10 mi
12:53 pm69 °FSunny.25 mph35%29.75 "Hg10 mi
11:53 am67 °FSunny.21 mph33%29.80 "Hg10 mi
10:53 am64 °FSunny.21 mph38%29.83 "Hg10 mi
9:53 am62 °FSunny.28 mph39%29.85 "Hg10 mi
8:53 am58 °FSunny.13 mph56%29.88 "Hg10 mi
7:53 am50 °FSunny.12 mph74%29.90 "Hg10 mi
6:53 am42 °FSunny.6 mph85%29.91 "Hg10 mi
5:53 am45 °FClear.5 mph76%29.92 "Hg10 mi
Weather by CustomWeather, © 2017

See weather overviewHow to use our weather pages